This demonstration page uses our WeatherBlox Daily Observations layout. Learn more.

Left ArrowRight Arrow

47.50024, -111.30081

Hourly Observations for May 14, 2015

Temp ( °F °C ) Dew Point ( °F °C ) Humidity (%) Winds ( mph kmh ) Pressure ( in mb ) Visibility ( mi km ) Precip ( " mm )
12:20 am 00:20 Cloudy with Light Rain 45 7 41 5 87 87 NW 14 22 29.97 1015 7 11 0.00 0.00
12:53 am 00:53 Cloudy 43 6.1 41 5 93 93 NNW 8 13 29.99 1016 7 11 0.01 0.25
1:49 am 01:49 Cloudy 43 6 41 5 93 93 WSW 6 9 29.97 1015 7 11 0.00 0.00
1:53 am 01:53 Cloudy 43 6.1 41 5 93 93 SW 6 9 29.98 1015 7 11 0.00 0.00
2:07 am 02:07 Cloudy with Mist and Fog 43 6 41 5 93 93 WSW 7 11 29.97 1015 6 10 0.00 0.00
2:53 am 02:53 Cloudy with Mist and Fog 43 6.1 41 5 93 93 WNW 8 13 29.98 1015 6 10 0.00 0.00
3:30 am 03:30 Cloudy with Mist and Fog 43 6 41 5 93 93 NW 8 13 29.97 1015 6 10 0.00 0.00
3:43 am 03:43 Cloudy with Mist and Fog 42 5.6 41 5 96 96 NNW 8 13 29.97 1015 6 10 0.00 0.00
3:53 am 03:53 Cloudy with Mist and Fog 42 5.6 41 5 96 96 NW 7 11 29.98 1015 6 10 0.00 0.00
4:20 am 04:20 Cloudy with Mist and Fog 43 6 43 6 100 100 WNW 3 6 29.97 1015 6 10 0.00 0.00
4:53 am 04:53 Cloudy with Mist and Fog 43 6.1 42 5.6 97 97 WNW 3 6 29.98 1015 5 8 0.00 0.00
5:33 am 05:33 Cloudy with Mist and Fog 43 6.1 42 5.6 97 97 W 3 6 29.97 1015 1 1 0.00 0.00
5:53 am 05:53 Cloudy with Mist and Fog 43 6.1 42 5.6 97 97 Calm 29.99 1016 1 1 0.00 0.00
6:25 am 06:25 Mostly Cloudy with Fog 43 6.1 42 5.6 97 97 Calm 29.97 1015 0 0 0.00 0.00
6:53 am 06:53 Mostly Cloudy with Fog 43 6.1 43 6.1 100 100 Calm 29.99 1016 0 0 0.00 0.00
7:20 am 07:20 Cloudy with Mist and Fog 43 6 43 6 100 100 SSE 3 6 29.97 1015 1 2 0.00 0.00
7:37 am 07:37 Cloudy with Mist and Fog 43 6.1 42 5.6 97 97 SE 3 6 29.97 1015 2 3 0.00 0.00
7:53 am 07:53 Cloudy with Mist and Fog 43 6.1 43 6.1 100 100 SSW 3 6 30.00 1016 3 4 0.00 0.00
8:23 am 08:23 Cloudy with Mist and Fog 44 6.7 43 6.1 96 96 SSW 5 7 29.97 1015 3 4 0.00 0.00
8:33 am 08:33 Cloudy with Mist and Fog 44 6.7 43 6.1 96 96 SSW 3 6 29.97 1015 3 4 0.00 0.00
8:53 am 08:53 Cloudy with Mist and Fog 44 6.7 43 6.1 96 96 Calm 30.01 1016 3 4 0.00 0.00
9:13 am 09:13 Cloudy with Light Rain 45 7.2 43 6.1 93 93 Calm 29.97 1015 3 4 0.01 0.25
9:53 am 09:53 Cloudy with Light Rain 46 7.8 44 6.7 93 93 Calm 30.00 1016 3 4 0.02 0.51
10:31 am 10:31 Cloudy 48 8.9 44 6.7 86 86 E 6 9 29.94 1014 3 5 0.01 0.25
10:53 am 10:53 Cloudy 48 8.9 44 6.7 86 86 E 5 7 29.98 1015 3 5 0.01 0.25
11:04 am 11:04 Cloudy 48 9 45 7 87 87 NNE 5 7 29.91 1013 3 5 0.00 0.00
11:21 am 11:21 Cloudy 48 8.9 44 6.7 86 86 E 5 7 29.91 1013 3 5 0.00 0.00
11:53 am 11:53 Cloudy 49 9.4 44 6.7 83 83 E 5 7 29.98 1015 9 14 0.00 0.00
12:53 pm 12:53 Cloudy 50 10 45 7.2 83 83 NNE 6 9 29.97 1015 9 14 0.00 0.00
1:53 pm 13:53 Cloudy 50 10 45 7.2 83 83 NNE 8 13 29.95 1014 9 14 0.00 0.00
2:53 pm 14:53 Cloudy 50 10 45 7.2 83 83 NE 12 19 29.93 1014 9 14 0.00 0.00
3:53 pm 15:53 Cloudy 51 10.6 46 7.8 83 83 NNE 14 22 29.92 1013 9 14 0.00 0.00
4:07 pm 16:07 Cloudy 51 10.6 45 7.2 80 80 NNE 15 24 29.85 1011 9 14 0.00 0.00
4:53 pm 16:53 Cloudy 52 11.1 45 7.2 77 77 NNE 12 19 29.91 1013 10 16 0.00 0.00
5:53 pm 17:53 Cloudy 51 10.6 45 7.2 80 80 NNE 13 20 29.91 1013 9 14 0.00 0.00
6:53 pm 18:53 Cloudy with Light Rain 49 9.4 46 7.8 90 90 NNE 8 13 29.92 1013 3 5 0.05 1.27
7:45 pm 19:45 Cloudy with Rain 48 8.9 47 8.3 96 96 NNW 8 13 29.88 1012 2 3 0.06 1.52
7:53 pm 19:53 Cloudy with Light Rain 48 8.9 47 8.3 96 96 NNW 7 11 29.91 1013 2 3 0.07 1.78
8:19 pm 20:19 Cloudy with Mist and Fog 48 8.9 46 7.8 93 93 NNW 7 11 29.88 1012 4 6 0.00 0.03
8:49 pm 20:49 Cloudy with Light Rain 48 9 46 8 94 94 N 7 11 29.88 1012 4 6 0.00 0.03
8:53 pm 20:53 Cloudy with Light Rain 48 8.9 46 7.8 93 93 N 8 13 29.90 1013 4 6 0.00 0.03
9:13 pm 21:13 Cloudy with Light Rain 48 8.9 46 7.8 93 93 NNE 8 13 29.88 1012 6 10 0.01 0.25
9:53 pm 21:53 Cloudy with Light Rain 48 8.9 47 8.3 96 96 NNE 7 11 29.90 1013 6 10 0.01 0.25
10:07 pm 22:07 Cloudy with Mist and Fog 48 8.9 47 8.3 96 96 NE 6 9 29.88 1012 5 8 0.00 0.03
10:53 pm 22:53 Cloudy 48 8.9 47 8.3 96 96 ENE 5 7 29.90 1013 8 13 0.00 0.03
11:35 pm 23:35 Cloudy 48 8.9 46 7.8 93 93 NE 7 11 29.85 1011 8 13 0.00 0.00
11:53 pm 23:53 Cloudy 48 8.9 46 7.8 93 93 NE 6 9 29.88 1012 10 16 0.00 0.00

Powered by AerisWeather